RH
18 20 19 25 25 25 37 81 80 78 49 46 50 37 42 44 77 60 31 30 40 46 85 96 82 100 99 100 100 100 100 95 73 39 20 15 14 12 14 17 24 34 52
22 28 38 35 24 35 49 51 64 48 17 11 13 14 14 22 76 43 32 40 57 100 100 100 100 88 98 100 97 91 75 50 36 32 24 15 13 18 21 26 38 66 67
62 45 33 32 32 28 44 44 29 24 14 13 14 15 15 17 23 26 35 49 70 98 100 100 98 100 99 82 66 51 46 43 36 26 18 13 16 24 29 37 52 66 64
50 29 24 26 39 55 56 37 49 26 13 15 17 18 20 22 25 36 44 51 64 77 97 100 100 80 68 58 54 53 48 42 32 19 14 18 27 34 37 44 54 52 45
38 38 59 61 56 47 36 14 15 14 13 18 22 25 27 29 34 48 55 60 66 97 100 97 76 68 65 62 61 57 46 32 18 18 25 34 40 42 46 51 52 42 30
64 59 59 38 15 11 11 11 11 14 19 26 30 34 34 37 43 50 58 65 79 89 90 78 74 72 71 73 71 59 39 22 18 32 42 50 52 50 47 43 39 35 29
45 35 19 10 12 11 11 12 14 16 22 32 42 44 44 46 55 63 64 67 74 84 81 75 70 76 79 78 71 58 36 17 18 28 41 56 60 56 44 36 34 30 24
30 15 13 13 13 13 14 15 17 22 32 45 50 51 52 57 61 62 67 74 79 84 82 73 76 78 79 73 54 33 16 11 12 18 33 50 53 40 33 32 30 27 25
15 15 14 14 15 16 17 19 22 30 44 51 55 58 62 62 62 63 66 71 75 70 67 70 69 71 70 55 30 15 10 11 24 41 34 29 28 30 33 32 33 28 23
15 14 15 17 18 20 22 25 30 42 50 58 62 63 56 58 54 58 66 60 58 58 58 61 66 67 56 37 13 10 10 13 19 25 31 29 29 31 29 29 38 26 26
16 18 20 22 24 25 31 37 43 47 57 64 62 55 53 52 51 53 56 56 52 51 55 59 63 57 36 17 9 8 10 14 15 16 22 31 33 31 26 33 29 27 71
22 24 25 25 28 36 43 48 56 66 65 57 52 52 52 55 53 52 55 58 62 63 66 65 57 40 20 9 9 11 13 12 8 8 14 34 36 29 25 24 20 38 66
26 27 28 34 42 50 57 64 66 62 56 52 54 53 54 55 55 57 60 67 72 74 68 56 38 18 9 9 11 12 14 8 8 14 26 36 38 26 25 22 22 57 78
27 33 41 50 58 64 69 68 61 58 56 55 56 59 58 58 55 58 62 71 74 70 57 38 17 10 9 11 13 14 12 8 14 24 30 32 29 24 20 26 36 53 90
46 51 60 67 73 72 64 61 58 59 59 56 56 59 61 62 66 70 76 79 72 58 40 16 10 9 11 14 13 12 9 19 23 26 27 27 24 20 24 42 48 74 100
64 73 77 80 71 62 61 67 66 69 72 69 68 66 67 70 77 81 82 74 56 30 13 11 10 14 17 14 9 9 18 32 31 28 23 20 20 22 45 45 67 94 100
75 79 82 74 75 78 74 73 72 81 84 78 76 75 86 90 88 87 76 53 25 13 11 12 17 20 19 11 8 13 29 34 32 25 19 17 21 26 62 41 86 100 100
76 87 91 90 91 96 92 91 94 91 85 79 76 84 90 91 86 76 47 21 14 13 14 18 24 24 20 10 9 16 31 27 26 26 20 17 20 46 69 38 83 100 100
100 100 99 94 99 95 95 100 100 98 95 93 97 98 93 86 73 43 19 15 14 14 19 22 28 28 22 11 10 17 27 23 24 26 22 19 26 62 61 36 93 100 100
100 100 100 100 100 100 100 100 100 98 98 99 100 98 89 67 37 18 17 16 15 19 20 27 30 31 23 13 11 19 23 22 24 27 27 24 29 55 43 48 99 100 100
100 100 100 100 100 100 100 100 100 100 100 100 96 85 56 28 20 19 19 17 20 22 24 32 35 30 19 14 14 21 22 22 25 29 31 35 41 55 41 69 100 100 100
100 100 100 100 100 100 100 100 100 100 98 94 82 52 30 22 21 22 21 21 23 26 34 39 35 23 18 17 19 23 23 21 26 31 39 41 48 64 52 99 100 100 100
100 100 100 100 100 100 100 100 100 98 94 83 57 35 28 25 26 26 24 24 26 39 47 40 27 20 20 21 24 26 23 23 24 30 40 40 64 81 82 100 100 100 100
100 100 100 100 100 100 100 99 97 89 76 62 44 34 34 35 33 29 27 29 34 53 49 33 23 21 22 26 29 27 23 23 24 26 37 63 76 85 100 100 100 100 100
100 100 100 100 100 98 98 92 76 59 58 55 42 41 42 37 32 31 32 41 61 60 40 27 24 23 27 32 30 26 24 26 29 30 33 82 94 92 100 100 100 100 100
100 100 100 100 98 91 70 49 40 38 33 30 33 38 35 34 36 42 57 75 73 49 34 28 25 27 31 31 28 27 27 27 28 30 34 96 100 100 100 100 100 100 100
Wind_Speed
21 27 29 31 32 33 35 34 36 35 38 39 40 42 44 44 49 53 59 60 61 65 64 62 64 63 66 69 72 77 81 84 85 82 84 83 84 84 84 82 75 69 62
29 29 33 35 35 35 36 38 39 40 40 41 43 44 45 49 51 58 60 59 57 60 66 67 68 71 74 75 79 81 82 82 82 82 82 82 82 81 79 75 67 58 57
34 36 35 35 36 38 39 39 39 41 42 42 43 46 49 51 54 56 59 57 57 61 70 74 75 70 71 73 75 75 77 79 81 83 83 83 82 77 72 66 59 55 56
39 37 36 35 37 39 38 39 39 41 43 44 47 49 52 55 57 58 61 64 64 64 66 69 68 69 71 72 74 76 79 82 85 85 84 82 76 69 64 60 57 58 59
34 35 35 37 38 37 38 40 41 42 44 47 50 53 55 58 59 60 62 65 66 64 69 66 67 69 71 74 77 80 84 86 86 84 81 74 66 62 61 61 61 60 61
34 34 36 37 36 37 38 39 41 44 47 50 53 55 58 60 61 63 65 66 65 65 65 68 70 73 76 79 81 84 85 84 83 77 72 67 63 63 63 64 63 63 62
34 35 35 34 35 37 39 41 45 48 50 53 55 58 60 62 62 64 65 66 66 67 68 72 76 79 82 85 89 88 84 83 79 70 67 63 66 66 67 65 64 61 57
35 34 34 35 37 39 42 45 48 51 53 55 58 60 61 62 64 66 66 67 68 70 73 77 79 82 85 87 87 86 85 83 75 70 65 63 66 66 66 64 60 57 50
33 34 35 37 39 42 46 49 51 53 55 58 60 61 62 64 65 66 67 68 69 72 76 79 82 85 87 86 86 85 82 78 72 73 70 66 62 61 59 58 53 50 44
33 34 37 40 43 46 50 52 54 56 58 60 61 62 63 65 65 67 68 71 73 75 78 81 85 88 88 86 84 83 81 73 70 70 71 67 61 56 53 49 46 45 40
35 38 42 45 48 51 53 54 56 59 61 61 61 63 64 65 67 69 72 74 77 79 82 86 89 89 89 87 85 82 77 71 68 67 65 63 57 52 48 44 43 39 33
41 44 47 50 52 53 55 56 58 59 59 60 61 62 65 67 70 73 75 78 82 85 87 90 91 90 88 85 82 75 71 68 65 60 56 53 50 46 46 44 42 35 31
46 49 52 53 54 55 56 58 59 58 59 59 60 64 67 71 74 75 79 82 85 88 90 90 91 89 87 82 75 70 66 63 57 52 47 44 43 43 43 40 36 33 31
52 53 54 56 57 58 59 59 59 60 60 62 65 68 71 74 78 81 83 86 88 89 91 90 89 88 85 78 71 66 60 54 46 41 39 38 40 40 37 33 32 30 28
54 55 56 58 58 59 60 61 61 62 64 68 71 75 77 80 81 84 87 89 91 92 93 92 90 85 77 71 67 60 53 45 41 37 34 34 36 34 30 27 27 28 26
56 57 58 58 59 60 62 63 64 66 70 73 77 80 82 83 84 87 88 89 90 89 88 87 81 75 71 68 61 54 46 40 39 36 32 32 33 31 26 25 24 24 22
59 59 59 57 59 64 66 66 67 70 75 78 82 84 84 84 85 86 86 88 86 85 84 78 72 69 67 62 55 49 43 42 37 35 31 32 31 29 24 24 23 21 20
62 62 63 66 69 71 69 69 72 77 80 83 84 84 83 84 84 84 86 82 82 81 76 71 67 67 66 59 52 46 41 40 39 34 31 31 29 26 25 25 23 20 20
68 69 65 68 71 73 71 73 77 81 83 84 83 82 82 83 83 82 78 79 80 77 72 67 65 66 66 57 51 44 39 38 37 34 31 30 28 26 25 24 22 21 20
68 65 68 70 72 74 74 77 80 82 83 82 80 80 81 81 78 74 77 78 77 73 71 65 65 68 67 55 49 42 38 35 34 33 31 30 28 26 24 24 23 22 20
63 72 73 72 75 75 77 80 82 81 80 79 80 80 79 76 73 76 78 78 75 72 68 63 66 69 62 52 46 39 35 34 34 34 32 30 28 25 24 24 24 23 21
72 70 72 75 77 78 79 81 81 81 81 80 79 77 73 72 75 78 78 77 73 70 66 65 67 65 54 49 41 35 31 31 33 35 34 31 29 25 24 25 25 24 22
73 76 77 76 78 80 83 83 82 82 81 79 76 74 74 76 77 78 78 75 72 67 65 66 65 55 50 43 37 33 30 30 31 35 37 33 30 26 26 27 26 25 23
79 79 79 80 83 85 85 84 83 82 78 78 77 77 77 78 79 78 76 72 69 67 65 66 58 49 45 39 35 32 31 31 31 34 37 35 30 27 29 29 27 25 24
80 81 83 85 86 86 86 84 82 80 80 80 80 80 81 80 78 76 73 70 66 64 64 60 51 46 41 37 34 32 31 30 31 32 35 36 30 28 31 31 28 25 24
82 83 85 87 87 86 84 82 82 82 83 84 84 83 82 79 76 72 68 65 64 63 60 51 46 42 39 36 35 34 32 30 30 31 33 37 31 29 33 32 29 25 24
Wind_Direction
276 283 286 290 292 296 297 295 296 296 297 296 293 293 292 293 289 290 291 293 295 298 295 297 306 301 295 293 294 300 308 309 309 309 308 308 308 308 308 308 308 308 307
277 274 278 283 290 292 293 295 293 295 295 295 295 296 295 292 286 290 295 299 301 296 292 293 301 298 293 300 303 307 308 309 309 308 307 307 307 307 308 308 308 307 306
271 275 278 283 285 290 293 292 294 294 296 296 296 296 297 296 294 298 298 299 300 289 288 292 299 301 303 304 306 308 309 308 308 308 308 307 307 308 307 306 306 306 306
271 274 278 281 285 287 289 290 292 294 296 298 299 299 299 300 301 301 303 301 300 296 298 300 302 304 306 306 307 308 309 310 310 309 307 307 308 308 306 306 305 306 306
267 271 274 279 283 285 288 291 291 294 299 300 300 301 302 302 303 301 300 300 300 297 297 301 303 304 307 308 309 311 311 311 308 307 307 308 308 306 306 306 307 307 308
270 274 278 282 285 286 287 292 297 299 301 301 301 301 300 301 301 300 301 301 300 298 300 301 304 307 309 310 311 312 310 307 306 306 306 307 305 305 305 305 306 306 308
278 282 283 284 287 290 294 298 300 300 301 301 300 300 300 301 301 302 303 303 302 300 300 303 306 309 311 312 312 312 308 305 305 305 305 303 302 304 303 303 304 306 306
281 283 285 287 291 294 297 299 299 299 299 299 300 301 301 303 305 306 305 304 303 302 303 306 308 310 311 311 310 308 307 307 306 303 301 300 300 301 301 301 302 303 303
279 281 285 289 292 295 297 297 298 299 300 302 303 304 306 306 306 307 306 305 305 304 305 308 310 311 312 311 308 307 307 307 305 300 300 299 299 299 299 299 299 299 300
278 282 286 290 292 295 298 301 302 302 303 303 304 306 306 307 309 308 306 305 305 306 309 310 312 311 311 310 308 307 307 306 300 298 298 300 300 299 298 297 295 296 296
282 286 290 294 299 301 301 300 301 303 303 304 305 305 308 309 309 309 307 307 308 310 312 312 312 312 311 310 309 308 306 302 299 296 294 294 295 295 294 294 292 288 289
287 290 295 298 298 298 299 300 300 301 303 304 306 309 310 309 310 310 308 310 311 312 313 313 312 312 312 311 309 308 305 301 300 295 291 289 290 291 291 292 289 281 281
291 295 296 295 296 297 298 298 300 300 302 306 308 309 310 310 310 310 311 312 312 312 313 313 313 313 312 312 310 307 304 303 299 294 292 289 288 289 289 288 284 279 282
293 294 294 295 295 296 297 299 299 301 304 307 309 310 310 311 311 311 311 311 312 312 312 313 313 314 314 313 310 308 306 303 299 295 291 287 286 287 287 284 276 273 273
292 292 292 293 294 296 298 298 298 301 305 307 310 311 311 310 310 310 311 311 311 312 313 313 314 314 313 312 311 309 306 302 299 296 291 286 287 288 285 278 270 268 270
290 290 290 293 296 297 298 297 299 302 305 307 310 311 310 309 310 310 310 311 313 313 314 315 315 315 315 314 311 307 303 301 299 298 293 287 289 289 284 274 267 268 267
289 288 289 292 297 301 298 297 299 304 307 307 308 309 308 308 309 310 311 313 313 314 315 315 314 316 316 314 310 305 299 295 293 292 288 284 285 284 281 275 263 263 258
290 288 285 290 295 299 299 299 301 304 305 305 306 306 307 308 309 311 313 313 314 315 314 313 313 316 318 313 308 302 294 290 288 284 282 280 280 278 278 274 258 252 254
293 286 288 293 294 297 297 297 300 303 304 304 304 305 307 309 310 312 312 313 315 315 314 312 312 315 318 311 305 299 290 285 281 279 276 275 274 274 275 266 250 244 252
283 284 292 294 294 293 292 294 300 303 302 302 304 306 309 310 311 311 314 315 315 314 313 310 311 315 316 309 303 295 287 278 274 272 271 270 271 270 268 254 242 239 246
279 285 294 294 293 291 292 298 300 301 302 304 307 309 309 310 311 313 314 315 314 314 313 310 312 315 312 307 301 292 284 273 264 263 264 265 266 265 260 244 236 235 243
289 291 295 294 290 291 295 299 302 303 305 307 308 309 309 310 312 312 313 314 314 314 313 312 314 313 309 306 299 291 281 272 262 256 257 258 259 258 249 234 231 232 239
289 290 290 289 289 292 298 302 304 306 307 308 309 309 309 310 310 312 312 313 313 313 312 314 314 310 308 304 297 288 280 272 263 255 252 252 250 247 236 226 227 231 235
288 288 289 290 293 298 302 304 306 306 306 307 308 307 307 308 309 310 311 312 313 312 314 314 312 308 306 301 295 288 282 275 265 255 248 243 240 237 225 220 224 227 230
287 289 291 295 299 302 303 305 305 305 306 306 305 305 306 307 308 309 310 311 311 312 313 312 308 307 304 299 294 288 284 276 266 256 244 233 232 229 217 216 220 224 225
291 293 296 299 301 302 303 303 303 303 303 303 304 304 304 306 306 307 308 309 310 311 311 308 306 305 302 298 293 289 284 277 266 254 239 223 226 221 212 213 215 218 221